Tracking 29892 objects as of 21-Nov-2024
HD Live streaming from Space Station
objects crossing your sky now

STARLINK-3129

Track STARLINK-3129 now!
10-day predictions
STARLINK-3129 is classified as:


NORAD ID: 49453
Int'l Code: 2021-104AX
Perigee: 546.0 km
Apogee: 547.8 km
Inclination: 53.2 °
Period: 95.4 minutes
Semi major axis: 6917 km
RCS: Unknown
Launch date: November 13, 2021
Source: United States (US)
Launch site: AIR FORCE EASTERN TEST RANGE (AFETR)
Your satellite tracking list
Your tracking list is empty




NASA's NSSDC Master Catalog

Two Line Element Set (TLE):
1 49453U 21104AX  24324.87186704  .00000132  00000-0  26402-4 0  9993
2 49453  53.2160 190.7462 0001324  92.0996 268.0148 15.08837367167098
Source of the keplerian elements: AFSPC